Time,TemperatureF,DewpointF,PressureIn,WindDirection,WindDirectionDegrees,WindSpeedMPH,WindSpeedGustMPH,Humidity,HourlyPrecipIn,Conditions,Clouds,dailyrainin,SolarRadiationWatts/m^2,SoftwareType,DateUTC
2013-07-20 00:21:00,62.0,50.0,-100.00,North,356,5.0,7.0,65,0.00,,,0.01,0.000000,,2013-07-20 06:21:00,
2013-07-20 00:32:00,62.0,50.0,-100.00,North,356,5.0,7.0,65,0.00,,,0.01,0.000000,,2013-07-20 06:32:00,
2013-07-20 00:43:00,62.0,50.0,-100.00,North,356,5.0,7.0,65,0.00,,,0.01,0.000000,,2013-07-20 06:43:00,
2013-07-20 00:52:00,62.0,50.0,-100.00,North,356,5.0,7.0,65,0.00,,,0.01,0.000000,,2013-07-20 06:52:00,
2013-07-20 01:22:00,62.0,51.0,-100.00,NNW,338,2.0,7.0,67,0.00,,,0.00,0.000000,,2013-07-20 07:22:00,
2013-07-20 01:33:00,62.0,51.0,-100.00,NNW,338,2.0,7.0,67,0.00,,,0.00,0.000000,,2013-07-20 07:33:00,
2013-07-20 01:44:00,62.0,51.0,-100.00,NNW,338,2.0,7.0,67,0.00,,,0.00,0.000000,,2013-07-20 07:44:00,
2013-07-20 01:53:00,62.0,51.0,-100.00,NNW,338,2.0,7.0,67,0.00,,,0.00,0.000000,,2013-07-20 07:53:00,
2013-07-20 02:22:00,60.0,51.0,-100.00,NNW,342,2.0,5.0,72,0.00,,,0.00,0.000000,,2013-07-20 08:22:00,
2013-07-20 02:32:00,60.0,51.0,-100.00,NNW,342,2.0,5.0,72,0.00,,,0.00,0.000000,,2013-07-20 08:32:00,
2013-07-20 02:44:00,60.0,51.0,-100.00,NNW,342,2.0,5.0,72,0.00,,,0.00,0.000000,,2013-07-20 08:44:00,
2013-07-20 02:52:00,60.0,51.0,-100.00,NNW,342,2.0,5.0,72,0.00,,,0.00,0.000000,,2013-07-20 08:52:00,
2013-07-20 03:22:00,60.0,50.0,-100.00,NNE,14,3.0,7.0,70,0.00,,,0.00,0.000000,,2013-07-20 09:22:00,
2013-07-20 03:33:00,60.0,50.0,-100.00,NNE,14,3.0,7.0,70,0.00,,,0.00,0.000000,,2013-07-20 09:33:00,
2013-07-20 03:43:00,60.0,50.0,-100.00,NNE,14,3.0,7.0,70,0.00,,,0.00,0.000000,,2013-07-20 09:43:00,
2013-07-20 03:53:00,60.0,50.0,-100.00,NNE,14,3.0,7.0,70,0.00,,,0.00,0.000000,,2013-07-20 09:53:00,
2013-07-20 04:22:00,60.0,50.0,-100.00,NE,35,3.0,7.0,69,0.00,,,0.00,0.000000,,2013-07-20 10:22:00,
2013-07-20 04:32:00,60.0,50.0,-100.00,NE,35,3.0,7.0,69,0.00,,,0.00,0.000000,,2013-07-20 10:32:00,
2013-07-20 04:42:00,60.0,50.0,-100.00,NE,35,3.0,7.0,69,0.00,,,0.00,0.000000,,2013-07-20 10:42:00,
2013-07-20 04:52:00,60.0,50.0,-100.00,NE,35,3.0,7.0,69,0.00,,,0.00,0.000000,,2013-07-20 10:52:00,
2013-07-20 05:22:00,58.0,50.0,-100.00,NNE,13,2.0,4.0,74,0.00,,,0.00,0.000000,,2013-07-20 11:22:00,
2013-07-20 05:32:00,58.0,50.0,-100.00,NNE,13,2.0,4.0,74,0.00,,,0.00,0.000000,,2013-07-20 11:32:00,
2013-07-20 05:43:00,58.0,50.0,-100.00,NNE,13,2.0,4.0,74,0.00,,,0.00,0.000000,,2013-07-20 11:43:00,
2013-07-20 05:52:00,58.0,50.0,-100.00,NNE,13,2.0,4.0,74,0.00,,,0.00,0.000000,,2013-07-20 11:52:00,
2013-07-20 06:22:00,58.0,50.0,-100.00,East,89,1.0,5.0,76,0.00,,,0.00,0.000000,,2013-07-20 12:22:00,
2013-07-20 06:32:00,58.0,50.0,-100.00,East,89,1.0,5.0,76,0.00,,,0.00,0.000000,,2013-07-20 12:32:00,
2013-07-20 06:52:00,58.0,50.0,-100.00,East,89,1.0,5.0,76,0.00,,,0.00,0.000000,,2013-07-20 12:52:00,
2013-07-20 07:22:00,57.0,50.0,-100.00,SE,127,1.0,8.0,77,0.00,,,0.00,14.000000,,2013-07-20 13:22:00,
2013-07-20 07:32:00,57.0,50.0,-100.00,SE,127,1.0,8.0,77,0.00,,,0.00,14.000000,,2013-07-20 13:32:00,
2013-07-20 07:43:00,57.0,50.0,-100.00,SE,127,1.0,8.0,77,0.00,,,0.00,14.000000,,2013-07-20 13:43:00,
2013-07-20 07:53:00,57.0,50.0,-100.00,SE,127,1.0,8.0,77,0.00,,,0.00,14.000000,,2013-07-20 13:53:00,
2013-07-20 08:32:00,63.0,53.0,-100.00,WSW,241,2.0,3.0,69,0.00,,,0.00,114.000000,,2013-07-20 14:32:00,
2013-07-20 08:43:00,63.0,53.0,-100.00,WSW,241,2.0,3.0,69,0.00,,,0.00,114.000000,,2013-07-20 14:43:00,
2013-07-20 08:53:00,63.0,53.0,-100.00,WSW,241,2.0,3.0,69,0.00,,,0.00,114.000000,,2013-07-20 14:53:00,
2013-07-20 09:22:00,68.0,52.0,-100.00,SE,145,4.0,6.0,57,0.00,,,0.00,389.000000,,2013-07-20 15:22:00,
2013-07-20 09:33:00,68.0,52.0,-100.00,SE,145,4.0,6.0,57,0.00,,,0.00,389.000000,,2013-07-20 15:33:00,
2013-07-20 09:44:00,68.0,52.0,-100.00,SE,145,4.0,6.0,57,0.00,,,0.00,389.000000,,2013-07-20 15:44:00,
2013-07-20 09:53:00,68.0,52.0,-100.00,SE,145,4.0,6.0,57,0.00,,,0.00,389.000000,,2013-07-20 15:53:00,
2013-07-20 10:22:00,73.0,52.0,-100.00,South,176,3.0,6.0,47,0.00,,,0.00,584.000000,,2013-07-20 16:22:00,
2013-07-20 10:32:00,73.0,52.0,-100.00,South,176,3.0,6.0,47,0.00,,,0.00,584.000000,,2013-07-20 16:32:00,
2013-07-20 10:43:00,73.0,52.0,-100.00,South,176,3.0,6.0,47,0.00,,,0.00,584.000000,,2013-07-20 16:43:00,
2013-07-20 10:52:00,73.0,52.0,-100.00,South,176,3.0,6.0,47,0.00,,,0.00,584.000000,,2013-07-20 16:52:00,
2013-07-20 11:22:00,76.0,50.0,-100.00,South,180,5.0,10.0,40,0.00,,,0.00,757.000000,,2013-07-20 17:22:00,
2013-07-20 11:32:00,76.0,50.0,-100.00,South,180,5.0,10.0,40,0.00,,,0.00,757.000000,,2013-07-20 17:32:00,
2013-07-20 11:43:00,76.0,50.0,-100.00,South,180,5.0,10.0,40,0.00,,,0.00,757.000000,,2013-07-20 17:43:00,
2013-07-20 11:53:00,76.0,50.0,-100.00,South,180,5.0,10.0,40,0.00,,,0.00,757.000000,,2013-07-20 17:53:00,
2013-07-20 12:24:00,79.0,50.0,-100.00,SSW,207,7.0,13.0,37,0.00,,,0.00,888.000000,,2013-07-20 18:24:00,
2013-07-20 12:35:00,79.0,50.0,-100.00,SSW,207,7.0,13.0,37,0.00,,,0.00,888.000000,,2013-07-20 18:35:00,
2013-07-20 12:45:00,79.0,50.0,-100.00,SSW,207,7.0,13.0,37,0.00,,,0.00,888.000000,,2013-07-20 18:45:00,
2013-07-20 12:55:00,79.0,50.0,-100.00,SSW,207,7.0,13.0,37,0.00,,,0.00,888.000000,,2013-07-20 18:55:00,
2013-07-20 13:25:00,82.0,49.0,-100.00,South,176,6.0,14.0,32,0.00,,,0.00,973.000000,,2013-07-20 19:25:00,
2013-07-20 13:34:00,82.0,49.0,-100.00,South,176,6.0,14.0,32,0.00,,,0.00,973.000000,,2013-07-20 19:34:00,
2013-07-20 13:43:00,82.0,49.0,-100.00,South,176,6.0,14.0,32,0.00,,,0.00,973.000000,,2013-07-20 19:43:00,
2013-07-20 13:53:00,82.0,49.0,-100.00,South,176,6.0,14.0,32,0.00,,,0.00,973.000000,,2013-07-20 19:53:00,
2013-07-20 14:23:00,84.0,47.0,-100.00,SSW,203,6.0,16.0,28,0.00,,,0.00,747.000000,,2013-07-20 20:23:00,
2013-07-20 14:33:00,84.0,47.0,-100.00,SSW,203,6.0,16.0,28,0.00,,,0.00,747.000000,,2013-07-20 20:33:00,
2013-07-20 14:45:00,84.0,47.0,-100.00,SSW,203,6.0,16.0,28,0.00,,,0.00,747.000000,,2013-07-20 20:45:00,
2013-07-20 14:55:00,84.0,47.0,-100.00,SSW,203,6.0,16.0,28,0.00,,,0.00,747.000000,,2013-07-20 20:55:00,
2013-07-20 15:55:00,76.0,46.0,-100.00,ENE,58,6.0,17.0,35,0.00,,,0.00,281.000000,,2013-07-20 21:55:00,
2013-07-20 16:25:00,72.0,50.0,-100.00,SW,223,4.0,15.0,46,0.00,,,0.00,113.000000,,2013-07-20 22:25:00,
2013-07-20 16:33:00,72.0,50.0,-100.00,SW,223,4.0,15.0,46,0.00,,,0.00,113.000000,,2013-07-20 22:33:00,
2013-07-20 16:47:00,72.0,50.0,-100.00,SW,223,4.0,15.0,46,0.00,,,0.00,113.000000,,2013-07-20 22:47:00,
2013-07-20 16:54:00,72.0,50.0,-100.00,SW,223,4.0,15.0,46,0.00,,,0.00,113.000000,,2013-07-20 22:54:00,
2013-07-20 17:27:00,74.0,48.0,-100.00,WSW,244,3.0,7.0,40,0.00,,,0.00,207.000000,,2013-07-20 23:27:00,
2013-07-20 17:36:00,74.0,48.0,-100.00,WSW,244,3.0,7.0,40,0.00,,,0.00,207.000000,,2013-07-20 23:36:00,
2013-07-20 17:44:00,74.0,48.0,-100.00,WSW,244,3.0,7.0,40,0.00,,,0.00,207.000000,,2013-07-20 23:44:00,
2013-07-20 17:54:00,74.0,48.0,-100.00,WSW,244,3.0,7.0,40,0.00,,,0.00,207.000000,,2013-07-20 23:54:00,
2013-07-20 18:23:00,74.0,47.0,-100.00,SSW,202,6.0,8.0,38,0.00,,,0.00,224.000000,,2013-07-21 00:23:00,
2013-07-20 18:43:00,74.0,47.0,-100.00,SSW,202,6.0,8.0,38,0.00,,,0.00,224.000000,,2013-07-21 00:43:00,
2013-07-20 18:55:00,74.0,47.0,-100.00,SSW,202,6.0,8.0,38,0.00,,,0.00,224.000000,,2013-07-21 00:55:00,
2013-07-20 19:26:00,71.0,47.0,-100.00,SE,139,3.0,9.0,43,0.00,,,0.00,155.000000,,2013-07-21 01:26:00,
2013-07-20 19:36:00,71.0,47.0,-100.00,SE,139,3.0,9.0,43,0.00,,,0.00,155.000000,,2013-07-21 01:36:00,
2013-07-20 20:26:00,69.0,47.0,-100.00,WNW,287,2.0,4.0,45,0.00,,,0.00,54.000000,,2013-07-21 02:26:00,
2013-07-20 20:36:00,69.0,47.0,-100.00,WNW,287,2.0,4.0,45,0.00,,,0.00,54.000000,,2013-07-21 02:36:00,
2013-07-20 20:54:00,69.0,47.0,-100.00,WNW,287,2.0,4.0,45,0.00,,,0.00,54.000000,,2013-07-21 02:54:00,
2013-07-20 21:35:00,67.0,47.0,-100.00,ENE,66,3.0,8.0,49,0.00,,,0.00,7.000000,,2013-07-21 03:35:00,
2013-07-20 21:44:00,67.0,47.0,-100.00,ENE,66,3.0,8.0,49,0.00,,,0.00,7.000000,,2013-07-21 03:44:00,
2013-07-20 22:22:00,67.0,47.0,-100.00,NE,39,4.0,7.0,48,0.00,,,0.00,0.000000,,2013-07-21 04:22:00,
2013-07-20 22:32:00,67.0,47.0,-100.00,NE,39,4.0,7.0,48,0.00,,,0.00,0.000000,,2013-07-21 04:32:00,
2013-07-20 22:43:00,67.0,47.0,-100.00,NE,39,4.0,7.0,48,0.00,,,0.00,0.000000,,2013-07-21 04:43:00,
2013-07-20 22:53:00,67.0,47.0,-100.00,NE,39,4.0,7.0,48,0.00,,,0.00,0.000000,,2013-07-21 04:53:00,
2013-07-20 23:22:00,63.0,48.0,-100.00,North,7,7.0,9.0,58,0.00,,,0.00,0.000000,,2013-07-21 05:22:00,
2013-07-20 23:32:00,63.0,48.0,-100.00,North,7,7.0,9.0,58,0.00,,,0.00,0.000000,,2013-07-21 05:32:00,
2013-07-20 23:42:00,63.0,48.0,-100.00,North,7,7.0,9.0,58,0.00,,,0.00,0.000000,,2013-07-21 05:42:00,
2013-07-20 23:52:00,63.0,48.0,-100.00,North,7,7.0,9.0,58,0.00,,,0.00,0.000000,,2013-07-21 05:52:00,